PST,Max TemperatureF,Mean TemperatureF,Min TemperatureF,Max Dew PointF,MeanDew PointF,Min DewpointF,Max Humidity, Mean Humidity, Min Humidity, Max Sea Level PressureIn, Mean Sea Level PressureIn, Min Sea Level PressureIn, Max VisibilityMiles, Mean VisibilityMiles, Min VisibilityMiles, Max Wind SpeedMPH, Mean Wind SpeedMPH, Max Gust SpeedMPH,PrecipitationIn, CloudCover, Events, WindDirDegrees
2013-1-1,12,0,-12,6,-4,-15,95,84,73,30.76,30.55,30.40,10,6,0,10,2,10,0.00,4,Fog,43
2013-1-2,14,1,-13,6,-9,-16,95,83,70,30.74,30.58,30.41,10,7,0,8,1,8,0.00,3,Fog,268
2013-1-3,20,5,-11,8,-4,-15,91,76,61,30.64,30.57,30.50,10,10,9,16,4,22,0.00,0,,246
2013-1-4,19,5,-10,6,-4,-15,91,76,61,30.67,30.59,30.53,10,10,7,6,0,6,0.00,0,,250
2013-1-5,20,6,-8,11,2,-11,91,77,62,30.57,30.46,30.33,10,9,7,8,2,9,0.00,2,,251
2013-1-6,24,15,6,17,12,3,92,80,68,30.34,30.25,30.12,9,5,0,8,1,9,0.00,7,Fog,250
2013-1-7,31,25,18,27,21,16,100,92,84,30.27,30.18,30.09,10,5,0,8,1,8,0.08,7,Fog-Snow,243
2013-1-8,44,31,17,32,25,15,100,83,65,30.27,30.21,30.13,10,8,1,12,2,15,0.00,4,,305
2013-1-9,40,30,20,32,26,17,100,85,70,30.16,29.90,29.74,10,9,2,29,9,39,T,7,Rain-Snow,270
2013-1-10,29,17,4,17,12,2,88,72,55,29.99,29.91,29.80,10,10,10,21,9,25,T,4,,255
2013-1-11,26,11,-4,12,6,-1,92,72,46,30.25,30.13,29.96,10,10,10,15,7,,0.00,2,,260
2013-1-12,15,1,-14,5,-6,-16,92,77,61,30.46,30.35,30.11,10,10,2,9,2,9,0.00,0,,275
2013-1-13,16,1,-15,7,-7,-18,87,77,67,30.53,30.34,30.15,10,6,0,7,2,7,0.00,4,Fog,354
2013-1-14,21,5,-11,9,1,-15,95,76,57,30.61,30.55,30.49,10,10,10,7,2,7,0.00,4,,299
2013-1-15,27,13,-1,13,3,-5,95,75,55,30.85,30.74,30.62,10,10,9,8,2,9,0.00,0,,318
2013-1-16,28,12,-5,15,2,-8,95,76,57,30.86,30.74,30.58,10,8,1,6,2,6,0.00,1,,265
2013-1-17,22,8,-6,11,1,-9,96,79,62,30.82,30.74,30.67,10,9,7,7,2,7,0.00,0,,252
2013-1-18,22,8,-6,11,1,-7,95,81,67,30.71,30.64,30.58,10,9,7,6,1,7,0.00,0,,247
2013-1-19,28,10,-8,13,1,-9,91,73,55,30.73,30.64,30.47,10,9,7,6,1,6,0.00,0,,270
2013-1-20,28,10,-9,13,-1,-11,91,73,55,30.73,30.63,30.44,10,9,2,7,2,7,0.00,1,,300
2013-1-21,26,8,-10,12,-2,-15,91,75,59,30.64,30.52,30.37,10,8,0,6,2,6,0.00,1,Fog,259
2013-1-22,28,11,-6,13,2,-9,95,75,55,30.50,30.42,30.35,10,9,7,8,3,8,0.00,0,,262
2013-1-23,33,17,0,28,15,-2,95,81,66,30.33,30.22,30.15,10,8,5,14,4,17,T,6,Snow,227
2013-1-24,43,36,29,35,31,27,100,88,76,30.27,30.21,30.12,10,7,4,7,2,8,T,8,,8
2013-1-25,41,35,29,36,33,28,100,90,79,30.24,30.10,29.96,10,6,1,10,1,12,0.14,8,Rain,330
2013-1-26,40,31,21,32,28,20,100,80,59,29.99,29.92,29.87,10,7,0,13,5,16,0.02,6,Fog-Rain,259
2013-1-27,34,23,12,21,17,10,92,74,56,30.11,30.06,29.99,10,10,8,17,5,21,T,4,Snow,258
2013-1-28,34,23,12,28,24,10,100,85,69,30.09,29.99,29.93,10,4,1,20,8,24,0.15,8,Snow,232
2013-1-29,41,35,29,32,28,27,85,75,64,30.34,30.13,29.94,10,7,2,23,12,30,T,8,Rain-Snow,243
2013-1-30,49,39,28,34,31,25,89,75,60,30.39,30.34,30.28,10,10,10,16,7,20,0.00,5,,218
2013-1-31,45,33,20,33,28,18,96,81,65,30.41,30.35,30.27,10,9,0,8,2,9,0.00,4,Fog,312